Preview of NWS' New Version of Forecast
This preview is not operational and should not be used for support decisions.

Regional Weather Roundup (RWR)

Issued by National Weather Service (NWS)

                            
000
ASUS44 KJAN 221910
RWRMS 

MISSISSIPPI HOURLY WEATHER ROUNDUP
NATIONAL WEATHER SERVICE JACKSON MS
200 PM CDT WED MAY 22 2019

NOTE: "FAIR: INDICATES FEW OR NO CLOUDS BELOW 12,000 FEET WITH NO
SIGNIFICANT WEATHER AND/OR OBSTRUCTIONS TO VISIBILITY.

MSZ001>002-007>008-010>013-018>021-025>028-034>036-222000-
NORTHWEST MISSISSIPPI
  
CITY           SKY/WX    TMP DP  RH WIND       PRES   REMARKS
BATESVILLE     FAIR      88  70  55 S13G22    29.96F HX  92           
CLARKSDALE     MOSUNNY   90  73  58 S18       29.95S HX  98           
CLEVELAND      FAIR      88  72  58 S18G24    29.95F HX  94           
GREENWOOD      PTSUNNY   89  71  55 S15       29.97F HX  95           
GREENVILLE     FAIR      89  70  53 S18       29.94F HX  94           
OLIVE BRANCH   PTSUNNY   84  77  79 S12       29.96F HX  94           
OXFORD         PTSUNNY   86  68  54 S9G18     30.00S                  
TUNICA           N/A     86  70  58 S13G22    29.95F HX  90           
WINONA         FAIR      87  71  58 S9G16     29.99S HX  93           
$$

MSZ003>006-009-014>017-022>024-029>033-037>039-222000-
NORTHEAST MISSISSIPPI
  
CITY           SKY/WX    TMP DP  RH WIND       PRES   REMARKS
ABERDEEN       FAIR      88  82  84 S13       30.02S HX 108           
COLUMBUS AFB   NOT AVBL                                               
CORINTH        FAIR      88  68  51 S10G20    29.99S HX  91           
GOLDN TRIANGLE PTSUNNY   89  73  59 SE14      30.02  HX  97           
STARKVILLE     FAIR      88  72  58 S8G17     30.02S HX  94           
TUPELO         PTSUNNY   88  69  53 S15G22    29.99F HX  92           
$$

MSZ040-058-222000-
CENTRAL MISSISSIPPI
  
CITY           SKY/WX    TMP DP  RH WIND       PRES   REMARKS
JACKSON INTL   FAIR      87  70  56 S14       29.99F HX  92           
JACKSON HAWKNS FAIR      88  72  58 SE14G22   30.00S HX  94           
MADISON        FAIR      86  72  62 S8        29.99F HX  92           
MERIDIAN KEY   FAIR      89  69  51 S8        30.03F HX  93           
MERIDIAN NAS   FAIR      90  69  50 SE8       30.04S HX  94           
RAYMOND          N/A     90  75  62 SE7G15    29.98F HX 100           
VICKSBURG VKS  CLEAR     90  72  55 S10       29.97S HX  96           
$$

MSZ059>079-222000-
SOUTH MISSISSIPPI
  
CITY           SKY/WX    TMP DP  RH WIND       PRES   REMARKS
BROOKHAVEN     FAIR      90  72  55 SE9G17    30.02S HX  96           
HATTIESBURG    PTSUNNY   89  69  51 S12G18    30.03S HX  93           
LAUREL         PTCLDY    89  72  57 S9        30.02F HX  95           
MCCOMB         FAIR      88  71  57 S15G23    30.01F HX  94           
NATCHEZ        PTSUNNY   88  73  61 S13       29.98S HX  95           
PINE BELT      FAIR      86  72  62 VRB3      30.04S HX  92           
$$

MSZ080>082-222000-
COASTAL MISSISSIPPI
  
CITY           SKY/WX    TMP DP  RH WIND       PRES   REMARKS
BAY ST LOUIS   PTSUNNY   82  73  74 SE9G16    30.03F                  
BILOXI         NOT AVBL                                               
PASCAGOULA     PTSUNNY   88  73  61 S12       30.05S HX  95           
GULFPORT       FAIR      86  73  65 SE14      30.04S HX  93           
$$

LAZ007>009-015>016-023>026-222000-
NORTHEAST LOUISIANA
  
CITY           SKY/WX    TMP DP  RH WIND       PRES   REMARKS
BASTROP        FAIR      87  70  56 S8G20     29.95F HX  92           
TALLULAH/VBURG FAIR      87  71  58 S9        29.97S HX  93           
VIDALIA        FAIR      88  74  63 S9G16     29.96S HX  96           
$$